Simultaneous Nadir Overpasses (SNOs) Predictions

Prediction of SNOs between GOES-16 and LANDSAT-8 Satellite Orbit:

Table of predicted SNOs for the next 14.0 days since TLE Epoch: 8/10/2019
Index Date Time (GOES-16) GOES-16 Lat,Lon LANDSAT-8 Lat,Lon Distance(km) Time Diff (sec)
1 08/11/2019 15:15:22 0.02, -75.17 0.08, -75.38 23.61 80
2 08/13/2019 15:00:32 0.02, -75.18 -0.58, -72.43 312.83 80
3 08/14/2019 03:24:36 -0.02, -75.17 -0.54, -77.62 278.32 80
4 08/16/2019 03:09:45 -0.02, -75.18 0.07, -74.65 58.90 80
5 08/18/2019 02:57:35 -0.02, -75.19 0.74, -71.71 396.76 80
6 08/18/2019 15:21:29 0.03, -75.21 0.40, -76.85 187.89 80
7 08/20/2019 15:06:40 0.02, -75.23 -0.27, -73.91 150.80 80
8 08/21/2019 03:30:43 -0.03, -75.23 -0.85, -79.09 439.60 80
9 08/22/2019 14:54:29 0.03, -75.26 -0.89, -70.95 489.86 80
10 08/23/2019 03:18:32 -0.03, -75.25 -0.23, -76.13 100.46 80




NCC Satellite Simultaneous Nadir Overpasses (SNOs) Prediction Service
